www.pogodaiklimat.ru

Погода и климат >> Архив погоды >> Ирландия >> Malin Head


ПОГОДА в Malin Head

  • Прогноз погоды в Malin Head
  • Монитор погоды в Malin Head
  • Климат города

АРХИВ ПОГОДЫ в Malin Head

Время (UTC), дата Ветер
(напр.,м/с)
 
Видим.   Явления Облачность Т
(С)
Тd
(С)
f
(%)
Тe
(С)
Тes
(С)
Комфортность P
(гПа)
Po
(гПа)
Тmin
(С)
Tmax
(С)
R
(мм)
R24
(мм)
S
(см)
17 10.12 Ю 7 22 км в посл. час морось н/о +7.2 +5.5 89 +2 +2 1022.4 1019.8
16 10.12 ЮВ 6 7000 м дымка н/о +7.2 +5.1 86 +3 +3 1023.1 1020.5
18 10.12 ЮВ 8 16 км {ливн. осадки, морось} н/о +7.5 +5.6 88 +2 +2 1022.1 1019.5 +8.2 0.4
19 10.12 Ю 8 28 км н/о +8.0 +6.0 87 +3 +3 1021.9 1019.4
20 10.12 Ю 5 21 км н/о +8.3 +6.5 88 +5 +5 1021.6 1019.1
21 10.12 Ю 6 19 км н/о +8.4 +6.9 90 +4 +4 1021.5 1019.0
23 10.12 Ю 8 16 км н/о +8.4 +7.1 92 +4 +4 1020.5 1018.0
22 10.12 Ю 7 12 км н/о +8.1 +6.7 91 +4 +4 1021.1 1018.5
00 11.12 Ю 8 13 км н/о +8.7 +7.2 90 +4 +4 1019.8 1017.3
01 11.12 Ю 5 21 км н/о +9.0 +7.4 90 +5 +5 1019.2 1016.7
02 11.12 ЮВ 4 16 км н/о +8.5 +6.9 90 +5 +5 1018.7 1016.2
03 11.12 Ю 8 26 км н/о +9.2 +7.4 88 +5 +5 1018.1 1015.5
05 11.12 ЮВ 5 30 км н/о +9.6 +7.4 86 +6 +6 1016.7 1014.2
04 11.12 Ю 5 28 км н/о +9.7 +7.5 86 +6 +6 1017.6 1015.1
06 11.12 Ю 13 35 км н/о +10.4 +7.4 82 +6 +6 1015.9 1013.4 +7.5
07 11.12 Ю 9 40 км н/о +9.8 +7.0 83 +5 +5 1015.9 1013.4
08 11.12 С 1 35 км н/о +10.1 +7.1 82 +10 +10 1015.7 1013.2
09 11.12 ЮВ 7 45 км н/о +9.9 +6.8 81 +6 +6 1015.6 1013.1
11 11.12 ЮВ 9 16 км н/о +10.3 +7.3 82 +6 +6 1015.1 1012.6
10 11.12 ЮВ 4 21 км н/о +9.6 +7.2 85 +7 +7 1015.6 1013.1
12 11.12 ЮВ 13 29 км н/о +10.7 +7.4 80 +6 +6 1013.8 1011.3
13 11.12 Ю 13
{19}
26 км н/о +10.4 +7.7 83 +6 +6 1013.5 1011.1
14 11.12 Ю 12 30 км н/о +10.0 +7.9 87 +5 +5 1012.8 1010.3
15 11.12 Ю 15
{20}
35 км н/о +10.2 +7.6 84 +5 +5 1012.2 1009.7
17 11.12 Ю 12
{18}
28 км н/о +10.0 +7.8 86 +5 +5 1012.7 1010.2
16 11.12 Ю 14
{20}
30 км н/о +10.2 +7.4 83 +5 +5 1012.5 1010.0
18 11.12 Ю 9 20 км н/о +9.7 +7.8 88 +5 +5 1012.7 1010.2 +10.8
19 11.12 ЮВ 9 11 км н/о +9.8 +7.8 87 +5 +5 1012.4 1009.9
20 11.12 ЮВ 10 22 км н/о +9.9 +7.6 86 +5 +5 1012.3 1009.8
21 11.12 ЮВ 8 22 км н/о +9.9 +7.2 83 +6 +6 1012.4 1009.9
23 11.12 ЮВ 9 10 км слаб. дождь н/о +9.4 +7.7 89 +5 +5 1012.9 1010.4
22 11.12 ЮВ 10 15 км слаб. морось н/о +9.9 +7.2 83 +5 +5 1012.5 1010.0
00 12.12 ЮВ 8 12 км морось {дождь} н/о +9.4 +8.0 91 +5 +5 1013.2 1010.7 1
01 12.12 ЮВ 6 11 км в посл. час морось н/о +9.2 +8.0 92 +5 +5 1013.1 1010.6
02 12.12 ЮВ 6 14 км н/о +9.3 +8.1 92 +5 +5 1013.5 1011.0
03 12.12 Ю 5 20 км слаб. ливневой дождь {морось} н/о +9.2 +8.3 94 +6 +6 1013.9 1011.4
05 12.12 Ю 2 7000 м дымка н/о +7.8 +7.2 96 +6 +6 1013.7 1011.1
04 12.12 ЮЗ 4 15 км в посл. час дождь {ливн. осадки} н/о +8.2 +7.5 95 +5 +5 1014.0 1011.5
06 12.12 Ю 2 22 км {ливн. осадки, морось} н/о +7.1 +6.4 95 +5 +5 1014.2 1011.7 3
07 12.12 Ю 2 45 км н/о +7.1 +6.5 96 +5 +5 1014.1 1011.5
08 12.12 ЮВ 3 35 км н/о +7.4 +6.8 96 +4 +4 1013.6 1011.0
09 12.12 Ю 1 45 км н/о +7.3 +6.7 96 +6 +6 1013.5 1011.0
11 12.12 Ю 3 19 км н/о +8.1 +6.9 92 +5 +5 1013.0 1010.5
10 12.12 Ю 5 8000 м дымка н/о +7.5 +6.7 95 +3 +3 1013.5 1010.9
12 12.12 Ю 7 30 км н/о +8.4 +6.8 90 +4 +4 1012.2 1009.7 0.1
13 12.12 Ю 5 30 км н/о +8.7 +7.1 90 +5 +5 1011.5 1009.0
14 12.12 ЮВ 8 21 км н/о +9.0 +7.1 88 +5 +5 1010.4 1007.9
15 12.12 ЮВ 7 19 км н/о +9.1 +7.2 88 +5 +5 1009.5 1007.0
17 12.12 ЮВ 10 21 км н/о +9.4 +7.6 89 +5 +5 1008.9 1006.4
16 12.12 ЮВ 11 13 км н/о +9.5 +7.8 89 +5 +5 1009.2 1006.7
18 12.12 ЮВ 10 20 км н/о +9.2 +7.2 87 +4 +4 1008.1 1005.6 +9.6 0.1
19 12.12 ЮВ 10 10 км морось н/о +9.0 +7.3 89 +4 +4 1007.9 1005.4
20 12.12 ЮВ 10
{18}
19 км в посл. час дождь {ливн. осадки} н/о +8.9 +7.2 89 +4 +4 1007.7 1005.2
21 12.12 ЮВ 10 8000 м слаб. морось {ливн. осадки} н/о +8.6 +6.6 87 +4 +4 1007.5 1005.0
23 12.12 ЮВ 12
{20}
11 км в посл. час дождь {ливн. осадки} н/о +7.6 +5.7 88 +2 +2 1007.2 1004.7
22 12.12 ЮВ 13
{18}
8000 м дымка {морось} н/о +8.0 +6.2 88 +2 +2 1007.2 1004.7
00 13.12 ЮВ 15
{21}
21 км {ливн. осадки, морось} н/о +7.6 +4.6 81 +1 +1 1006.8 1004.3 0.8
01 13.12 ЮВ 12
{21}
19 км н/о +7.4 +4.2 80 +2 +2 1007.0 1004.5
02 13.12 ЮВ 14
{20}
17 км в посл. час морось {ливн. осадки} н/о +7.2 +4.0 80 +1 +1 1006.3 1003.8
03 13.12 ЮВ 15
{23}
22 км {ливн. осадки} н/о +7.0 +3.6 79 0 0 1006.4 1003.9
05 13.12 ЮВ 11
{19}
19 км слаб. морось {дождь} н/о +6.3 +3.3 81 0 0 1007.4 1004.9
04 13.12 ЮВ 14
{20}
21 км в посл. час морось {ливн. осадки} н/о +6.8 +3.5 79 0 0 1006.7 1004.2
06 13.12 ЮВ 13
{19}
20 км в посл. час морось {ливн. осадки, дождь} н/о +6.3 +2.9 79 -0 -0 1007.4 1004.9 +6.2 1
07 13.12 ЮВ 15
{20}
9000 м слаб. дождь н/о +5.6 +2.9 83 -2 -2 1007.6 1005.1
08 13.12 ЮВ 13
{19}
9000 м слаб. дождь н/о +5.3 +3.1 86 -2 -2 1008.1 1005.6
09 13.12 ЮВ 15
{20}
16 км в посл. час дождь н/о +5.6 +2.8 82 -2 -2 1008.6 1006.0
11 13.12 ЮВ 13
{20}
17 км н/о +5.8 +2.4 79 -1 -1 1009.1 1006.5
10 13.12 ЮВ 13
{19}
14 км слаб. ливневой дождь н/о +5.5 +2.6 82 -1 -1 1009.0 1006.5
12 13.12 ЮВ 11
{20}
18 км {ливн. осадки, дождь} н/о +6.0 +2.5 78 -0 -0 1009.3 1006.8 3
13 13.12 ЮВ 11
{19}
10 км н/о +6.1 +2.6 78 -0 -0 1009.3 1006.8
14 13.12 ЮВ 12
{18}
17 км н/о +6.2 +2.5 77 -0 -0 1009.8 1007.3
15 13.12 ЮВ 13
{18}
18 км н/о +6.2 +2.3 76 -0 -0 1009.9 1007.4
17 13.12 ЮВ 12
{22}
24 км н/о +6.4 +2.3 75 0 0 1011.6 1009.0
16 13.12 ЮВ 15
{21}
25 км н/о +6.4 +2.2 74 -0 -0 1010.5 1007.9
18 13.12 ЮВ 10
{19}
26 км н/о +6.2 +2.4 77 0 0 1012.6 1010.0 +6.5 3
19 13.12 ЮВ 11 21 км н/о +6.5 +2.3 75 +1 +1 1013.3 1010.8
20 13.12 ЮВ 12
{18}
26 км н/о +6.1 +2.5 78 -0 -0 1014.0 1011.5
21 13.12 ЮВ 12 30 км н/о +6.0 +2.6 79 -0 -0 1014.5 1011.9
23 13.12 Ю 8 23 км н/о +5.8 +3.4 85 0 0 1014.9 1012.4
22 13.12 ЮВ 12 30 км н/о +5.8 +2.7 80 -1 -1 1014.7 1012.1
00 14.12 Ю 9 21 км н/о +5.8 +3.3 84 -0 -0 1015.1 1012.6
01 14.12 ЮВ 10 40 км н/о +6.0 +3.1 82 0 0 1015.7 1013.1
02 14.12 Ю 11 30 км н/о +6.0 +3.1 82 -0 -0 1015.4 1012.9
03 14.12 ЮВ 8 26 км н/о +5.6 +3.3 85 -0 -0 1015.4 1012.9
05 14.12 ЮВ 10 23 км н/о +5.9 +2.9 81 -0 -0 1014.8 1012.2
04 14.12 ЮВ 9 27 км н/о +5.7 +3.0 83 -0 -0 1014.7 1012.2
06 14.12 ЮВ 10 22 км н/о +5.8 +2.6 80 -0 -0 1014.1 1011.5 +5.6
07 14.12 ЮВ 14
{18}
30 км н/о +5.6 +2.1 78 -1 -1 1013.3 1010.8
08 14.12 ЮВ 12
{18}
23 км н/о +5.9 +2.5 79 -1 -1 1013.8 1011.2
09 14.12 ЮВ 13
{18}
29 км н/о +6.1 +2.6 78 -1 -1 1013.7 1011.1
11 14.12 ЮВ 14
{19}
19 км н/о +6.5 +2.4 75 -0 -0 1013.6 1011.1
10 14.12 ЮВ 11 21 км н/о +5.8 +2.6 80 -1 -1 1013.6 1011.1
12 14.12 ЮВ 13
{18}
17 км н/о +6.6 +2.2 73 0 0 1013.2 1010.7
13 14.12 ЮВ 11
{19}
30 км н/о +6.6 +2.4 75 +1 +1 1012.4 1009.9
14 14.12 ЮВ 14
{19}
22 км н/о +6.7 +2.2 73 0 0 1011.1 1008.6
15 14.12 Ю 16
{23}
18 км н/о +6.4 +2.4 76 -1 -1 1010.4 1007.9
17 14.12 ЮВ 16
{22}
13 км н/о +6.1 +3.8 85 -1 -1 1008.9 1006.4
16 14.12 ЮВ 16
{22}
22 км н/о +6.3 +2.9 79 -1 -1 1010.1 1007.6
18 14.12 ЮВ 14
{21}
15 км н/о +6.7 +4.1 83 0 0 1008.9 1006.4 +6.8
19 14.12 Ю 15
{21}
9000 м дымка н/о +6.6 +4.7 88 -0 -0 1008.6 1006.1
20 14.12 Ю 12
{20}
10 км н/о +6.7 +5.1 90 0 0 1008.7 1006.2
21 14.12 ЮВ 14
{20}
9000 м в посл. час морось {ливн. осадки, дымка} н/о +6.9 +5.4 90 0 0 1008.2 1005.7
23 14.12 ЮВ 17
{25}
29 км в посл. час морось н/о +7.3 +5.2 87 0 0 1005.6 1003.1
22 14.12 ЮВ 16
{22}
15 км н/о +7.0 +5.4 90 0 0 1006.2 1003.7
00 15.12 ЮВ 18
{26}
5000 м слаб. морось {ливн. осадки} н/о +7.0 +5.7 91 -0 -0 1004.5 1002.0 0.4
01 15.12 ЮВ 18
{25}
15 км в посл. час дождь {ливн. осадки} н/о +6.9 +5.8 93 -1 -1 1004.6 1002.1
02 15.12 Ю 17
{24}
35 км в посл. час дождь {ливн. осадки} н/о +6.8 +5.9 94 -1 -1 1004.3 1001.8
03 15.12 ЮВ 12
{21}
18 км {ливн. осадки} н/о +6.9 +5.7 92 +1 +1 1004.9 1002.4
05 15.12 ЮВ 16
{22}
16 км н/о +6.5 +4.8 89 -1 -1 1001.4 998.9
04 15.12 ЮВ 13
{20}
18 км н/о +6.9 +5.4 90 0 0 1003.2 1000.7
06 15.12 ЮВ 17
{24}
12 км {ливн. осадки} н/о +6.5 +4.6 88 -1 -1 1000.7 998.2 +6.5 0.9
07 15.12 ЮВ 15
{24}
30 км слаб. ливневой дождь н/о +6.5 +4.5 87 -1 -1 1000.5 998.0
08 15.12 ЮВ 17
{23}
18 км слаб. ливневой дождь н/о +6.5 +4.5 87 -1 -1 998.3 995.8
09 15.12 ЮВ 19
{24}
н/о н/о +6.3 0 0 996.4 993.9
11 15.12 ЮВ 19
{26}
7000 м слаб. ливневой дождь н/о +6.0 +4.4 89 -2 -2 991.9 989.4
10 15.12 ЮВ 18
{24}
19 км слаб. ливневой дождь н/о +5.8 +4.2 89 -2 -2 994.6 992.1
12 15.12 ЮВ 18
{25}
8000 м слаб. дождь н/о +6.4 +4.7 89 -1 -1 989.7 987.2 5
13 15.12 ЮВ 16
{23}
24 км слаб. дождь н/о +6.7 +5.1 90 -0 -0 988.0 985.5
14 15.12 ЮВ 17
{23}
18 км слаб. ливневой дождь н/о +6.9 +5.1 88 -0 -0 986.0 983.6
15 15.12 ЮВ 16
{24}
35 км в посл. час дождь {ливн. осадки} н/о +7.4 +5.3 87 +1 +1 984.8 982.4
17 15.12 ЮВ 11
{21}
6000 м ливневой дождь н/о +7.2 +5.9 91 +1 +1 982.3 979.9
16 15.12 ЮВ 17
{21}
3000 м ливневой дождь н/о +7.2 +5.8 91 0 0 982.5 980.1
18 15.12 ЮВ 12
{18}
6000 м дождь {ливн. осадки} н/о +7.3 +6.2 93 +1 +1 981.8 979.3 +7.5 11
19 15.12 ЮВ 9 11 км слаб. дождь н/о +7.8 +6.9 94 +3 +3 981.3 978.9
20 15.12 З 13
{18}
5000 м в посл. час дождь н/о +7.7 +6.8 94 +2 +2 982.2 979.8
21 15.12 З 16
{23}
10 км слаб. ливневой дождь н/о +7.3 +5.9 91 0 0 983.9 981.5
23 15.12 З 16
{25}
15 км н/о +8.4 +4.0 74 +2 +2 987.1 984.6
22 15.12 З 18
{26}
15 км слаб. ливневой дождь н/о +8.0 +4.9 81 +1 +1 985.4 982.9
00 16.12 З 14
{24}
14 км в посл. час морось {ливн. осадки, дождь} н/о +8.0 +4.5 79 +2 +2 988.6 986.2 3
01 16.12 З 15
{22}
17 км в посл. час дождь {ливн. осадки} н/о +7.9 +5.6 85 +2 +2 989.7 987.3
02 16.12 З 13
{20}
21 км н/о +8.1 +4.5 78 +2 +2 991.0 988.5
03 16.12 З 12
{21}
16 км в посл. час дождь {ливн. осадки} н/о +7.5 +3.8 77 +2 +2 992.0 989.5
05 16.12 ЮЗ 8 15 км слаб. ливневой дождь н/о +6.2 +3.7 84 +1 +1 993.5 991.0
04 16.12 ЮЗ 9
{18}
17 км в посл. час дождь {ливн. осадки} н/о +6.7 +3.9 82 +1 +1 992.9 990.4
06 16.12 ЮЗ 10 18 км в посл. час морось {ливн. осадки} н/о +6.2 +3.8 85 0 0 993.7 991.2 +6.0 4
07 16.12 ЮЗ 9 23 км в посл. час морось {ливн. осадки} н/о +6.3 +3.9 85 +1 +1 994.3 991.8
08 16.12 Ю 7 40 км н/о +4.6 +2.3 85 -1 -1 994.9 992.4
09 16.12 Ю 10 14 км {ливн. осадки} н/о +4.8 +2.5 85 -2 -2 995.2 992.7
11 16.12 Ю 9 21 км н/о +4.8 +2.8 87 -2 -2 996.1 993.6
10 16.12 Ю 7 24 км н/о +4.7 +2.4 85 -1 -1 996.3 993.8
12 16.12 Ю 8 23 км {ливн. осадки} н/о +6.0 +3.5 84 +1 +1 996.4 993.9 0.1
13 16.12 Ю 7 22 км н/о +5.7 +3.0 83 0 0 996.8 994.3
14 16.12 Ю 6 40 км н/о +6.1 +3.4 83 +1 +1 997.0 994.5
15 16.12 Ю 6 35 км н/о +5.9 +3.3 83 +1 +1 997.2 994.7
17 16.12 Ю 8 50 км н/о +5.8 +3.1 83 0 0 998.2 995.7
16 16.12 Ю 7 40 км н/о +5.3 +3.0 85 -0 -0 997.6 995.1
18 16.12 Ю 6 50 км н/о +5.2 +2.9 85 0 0 999.1 996.6 +6.6 0.1
19 16.12 Ю 5 26 км н/о +5.4 +3.3 86 +1 +1 999.8 997.2
20 16.12 Ю 7 24 км н/о +5.3 +3.4 88 -0 -0 1000.4 997.9
21 16.12 Ю 7 15 км н/о +5.2 +3.4 88 -0 -0 1001.1 998.6
23 16.12 Ю 7 14 км н/о +4.8 +3.4 91 -1 -1 1002.3 999.8
22 16.12 Ю 7 30 км н/о +4.5 +2.9 89 -1 -1 1001.7 999.2
00 17.12 Ю 6 17 км н/о +4.9 +3.4 90 -0 -0 1003.3 1000.7
01 17.12 Ю 7 17 км н/о +4.9 +3.3 89 -1 -1 1003.7 1001.2
02 17.12 Ю 7 16 км н/о +4.6 +3.1 90 -1 -1 1004.3 1001.8
03 17.12 Ю 6 15 км н/о +4.5 +2.8 89 -1 -1 1004.8 1002.3
05 17.12 Ю 6 35 км н/о +4.0 +2.3 89 -2 -2 1005.5 1003.0
04 17.12 Ю 6 24 км н/о +3.5 +2.0 90 -2 -2 1005.3 1002.7
06 17.12 Ю 8 30 км н/о +4.7 +2.7 87 -1 -1 1005.3 1002.7 +3.5
07 17.12 Ю 7 24 км н/о +4.3 +2.0 85 -1 -1 1005.4 1002.9
08 17.12 Ю 9 26 км н/о +5.1 +2.7 84 -1 -1 1005.3 1002.8
09 17.12 Ю 8 21 км н/о +5.4 +3.1 85 -0 -0 1005.1 1002.6
11 17.12 Ю 10 30 км н/о +6.5 +3.6 82 +1 +1 1004.1 1001.6
10 17.12 ЮВ 9 11 км н/о +6.1 +3.3 82 0 0 1004.4 1001.9
12 17.12 ЮВ 11 25 км н/о +7.2 +4.4 82 +1 +1 1003.0 1000.5 0.1
13 17.12 Ю 11 24 км н/о +7.8 +5.3 84 +2 +2 1001.5 999.0
14 17.12 ЮВ 12 30 км н/о +8.7 +6.2 84 +3 +3 1000.1 997.6
15 17.12 Ю 15
{20}
21 км н/о +9.6 +6.8 83 +4 +4 999.2 996.8
16 17.12 ЮВ 15
{23}
29 км н/о +10.0 +7.2 83 +5 +5 998.4 996.0

 

Местоположение метеостанции Malin Head (Ирландия): широта 55.37 долгота -7.34 высота над уровнем моря 20 м.

В архиве по умолчанию представлена погода в Malin Head за последнюю неделю. Архивные данные за месяц целиком и за предыдущие месяцы, начиная с января 2011 года, Вы можете получить, выбрав интересующий диапазон дат из раскрывающегося списка и нажав кнопку "Ввод!".


*Определитесь, кто Вы:
робот инопланетянин человек

Внимание! Время в таблицах - всемирное. Для получения местного времени необходимо прибавить поправку, которая в Malin Head равна 0 ч.

Смотрите также архив погоды в соседних городах и на ближайших метеорологических станциях:

Погода в Magilligan No 2 (Великобритания) (36 км)
Погода в Castlederg (Великобритания) (76 км)
Погода в Port Ellen (Великобритания) (77 км)
Погода в Ballypatrick Forest (Великобритания) (77 км)
Погода в Portglenone (Великобритания) (79 км)
Погода в Lough Fea (Великобритания) (80 км)
Погода в Machrihanish (Великобритания) (104 км)
Погода в Belfast (Великобритания) (107 км)
Погода в Finner (Ирландия) (114 км)
Погода в Thomastown (Великобритания) (117 км)

Пояснения к столбцам:

Ветер - указаны скорость ветра в м/с - средняя за 10 мин, порывы в срок и между сроками (в фигурных скобках) и направление, откуда дует ветер: С - северный, СВ - северо-восточный, В - восточный, ЮВ - юго-восточный, Ю - южный, ЮЗ - юго-западный, З - западный, СЗ - северо-западный.
Видимость - горизонтальная дальность видимости в метрах или километрах. При видимости от 1 до 10 км при отсутствии осадков обычно наблюдается дымка, при ухудшении видимости до 1 км и менее - туман. В сухую погоду видимость может ухудшаться дымом, пылью или мглою.
Явления - указаны атмосферные явления, наблюдавшиеся в срок или в последний час перед сроком; фигурными скобками обозначены явления, наблюдавшиеся между сроками (за 1-3 часа до срока); квадратными скобками обозначены град или гололедные отложения с указанием их диаметра в мм.
Облачность - указаны через наклонную черту общая и нижняя облачность в баллах и высота нижней границы облаков в метрах; квадратными скобками обозначены формы облаков: Ci - перистые, Cs - перисто-слоистые, Cc - перисто-кучевые, Ac - высококучевые, As - высокослоистые, Sc - слоисто-кучевые, Ns - слоисто-дождевые, Cu - кучевые, Cb - кучево-дождевые. Подробнее классификацию облаков см. в Атласе облаков (PDF).
T - Температура воздуха - температура, измеренная на высоте 2 м над землей.
Td - Температура точки росы - температура, при понижении до которой содержащийся в воздухе водяной пар достигнет насыщения.
f - Относительная влажность воздуха - влажноcть воздуха, измеренная на высоте 2 м над землей.
Te - Эффективная температура - температура, которую ощущает одетый по сезону человек в тени. Характеристика душности погоды. При расчете учитывается влияние влажности воздуха и скорости ветра на теплоощущения человека.
Tes - Эффективная температура на солнце - температура, которую ощущает человек, с поправкой на солнечный нагрев. Характеристика знойности погоды. Зависит от высоты солнца над горизонтом, облачности и скорости ветра. Ночью, в пасмурную погоду, а также при ветре 12 м/с и более поправка равна нулю.
P - Атмосферное давление - приведенное к уровню моря атмосферное давление.
Po - Атмосферное давление - измеренное на уровне метеостанции атмосферное давление.
Tmin - Минимальная температура - минимум температуры воздуха на высоте 2 м над землей.
Tmax - Максимальная температура - максимум температуры воздуха на высоте 2 м над землей.
R - Количество осадков - Количество выпавших осадков за период времени, мм. При наведении курсора мыши на число - период времени, за который выпало указанное количество осадков.
R24 - Количество осадков - Количество выпавших осадков за 24 часа, мм.
S - Снежный покров - Высота снежного покрова, см. При наведении курсора мыши на число - состояние снежного покрова и степень покрытия местности в баллах.